Regional Weather Roundup
Issued by NWS

Home | Current Version | Previous Version | Graphics & Text | Print | Product List | Glossary On
Versions: 1 2 3 4 5 6 7 8 9 10 11 12 13 14 15 16 17 18 19 20 21 22 23 24 25 26 27 28 29 30 31 32 33 34 35 36 37 38 39 40 41 42 43 44 45 46 47 48 49 50
000
ASUS43 KMPX 171610
RWRMN
WEATHER ROUNDUP FOR MINNESOTA
NATIONAL WEATHER SERVICE TWIN CITIES/CHANHASSEN MN
1000 AM CST FRI NOV 17 2017


NOTE: "FAIR" INDICATES FEW OR NO CLOUDS BELOW 12,000 FEET WITH NO
SIGNIFICANT WEATHER AND/OR OBSTRUCTIONS TO VISIBILITY. N/A MEANS
CURRENT SKY AND/OR WEATHER CONDITIONS ARE NOT AVAILABLE.

MNZ060>063-068>070-171700-
   Twin Cities Metro

CITY           SKY/WX    TMP DP  RH WIND       PRES   REMARKS
TWIN CITIES    DRIZZLE   36  36 100 S9        29.68F FOG
ST PAUL        MIX PCPN  36  36 100 S10       29.70F FOG
CRYSTAL        CLOUDY    36  32  85 S14       29.66F FOG
BLAINE         DRIZZLE   37  37 100 SE10G17   29.67F
LAKEVILLE      CLOUDY    34  34 100 S9        29.67F FOG     WCI  26
EDEN PRAIRIE   CLOUDY    37  34  89 S8        29.66F FOG
SOUTH ST PAUL  CLOUDY    36  36 100 SE7       29.69F FOG
LAKE ELMO      MIX PCPN  36  34  93 SE6       29.70F
$$
MNZ001>005-007-008-013>017-022>024-027-028-171700-
   Northwest Minnesota

CITY           SKY/WX    TMP DP  RH WIND       PRES   REMARKS
BEMIDJI        CLOUDY    32  29  90 SW3       29.63R
HALLOCK        CLOUDY    23  18  80 NW13      29.66S WCI  11
ROSEAU         CLOUDY    34  28  80 W12       29.61R WCI  25
WARROAD        CLOUDY    34  30  86 W10       29.60S WCI  26
THIEF RVR FALL CLOUDY    32  28  86 W12       29.64S WCI  23
CROOKSTON      CLOUDY    34  28  80 NW13      29.67R WCI  25
FOSSTON        CLOUDY    32  28  86 SW8       29.64S WCI  25
DETROIT LAKES  CLOUDY    34  32  93 CALM      29.62R
MOORHEAD       CLOUDY    34  28  80 CALM      29.65S
PARK RAPIDS    MIX PCPN  32  29  88 SE21G28   29.58F WCI  20
MAHNOMEN       PTSUNNY   33  30  86 SW7       29.63R WCI  27
$$
MNZ006-009>011-018-025>026-171700-
   North Central Minnesota

CITY           SKY/WX    TMP DP  RH WIND       PRES   REMARKS
BAUDETTE       CLOUDY    34  28  79 S8        29.59F WCI  27
FLAG ISLAND    CLOUDY    34  28  80 SW9       29.58R WCI  26
INTL FALLS     CLOUDY    33  28  81 SW8       29.62F HAZE    WCI  26
WASKISH        CLOUDY    34  28  80 SW6       29.61S WCI  29
BIG FORK       CLOUDY    34  30  86 S10       29.58F WCI  26
LONGVILLE      LGT SNOW  34  30  86 SE7       29.65F WCI  28
GRAND RAPIDS   LGT SNOW  32  30  92 S6        29.69F VSB 1   WCI  26
CRANE LAKE     SNOW      30  28  93 S3        29.65F VSB 1/2
ORR            LGT SNOW  30  28  93 S10       29.61F WCI  21
COOK           LGT SNOW  30  28  93 S6        29.66F VSB 3/4 WCI  24
WALKER         CLOUDY    32  29  88 S17       29.56F WCI  21
$$
MNZ012-019>021-037-171700-
   Northeast Minnesota

CITY           SKY/WX    TMP DP  RH WIND       PRES   REMARKS
DULUTH         FRZ DRZL  31  31 100 S7        29.70R FOG     WCI  24
ELY            LGT SNOW  30  28  93 SW9       29.68R WCI  22
HIBBING        LGT SNOW  31  28  89 S6        29.67S VSB 1   WCI  25
EVELETH        MIX PCPN  32  27  80 SW8       29.70R WCI  25
DULUTH HARBOR  MIX PCPN  34  32  93 SW3       29.74F
TWO HARBORS    DRIZZLE   36  30  80 S3        29.70S
SILVER BAY     DRIZZLE   34  34 100 SW3       29.71R
GRAND MARAIS     N/A     38  33  82 SW18      29.74F
G MARAIS ARPRT LGT SNOW  28  25  86 S8        29.69S WCI  20
$$
MNZ029>031-032-039>041-046>048-054>057-064-171700-
   West Central Minnesota

CITY           SKY/WX    TMP DP  RH WIND       PRES   REMARKS
FERGUS FALLS   LGT RAIN  34  30  86 SE16G23   29.60F WCI  23
WHEATON        CLOUDY    36  28  75 E12       29.62F
MORRIS         CLOUDY    36  30  80 E3        29.63S
ALEXANDRIA     CLOUDY    36  30  79 E6        29.64S
ELBOW LAKE     FAIR      35  31  84 CALM      29.65S HAZE
WADENA         LGT RAIN  34  28  80 CALM      29.65S
GLENWOOD       CLOUDY    36  30  80 N3        29.64S
APPLETON         N/A     37  30  75 CALM      29.62F
BENSON         CLOUDY    37  30  75 S3        29.64S
ORTONVILLE     CLOUDY    36  28  75 MISG      29.61F
MADISON        CLOUDY    39  34  81 CALM      29.61F
WILLMAR        FAIR      39  34  81 SE14      29.62F
$$
MNZ033>034-036-042>043-049>051-058-059-171700-
   Central Minnesota

CITY           SKY/WX    TMP DP  RH WIND       PRES   REMARKS
ST CLOUD       CLOUDY    37  32  82 S7        29.66S
SAUK CENTRE    FAIR      36  31  82 SE3       29.65R
PAYNESVILLE    CLOUDY    38  33  83 SE13      29.62F
AITKIN         CLOUDY    34  28  80 SW3       29.67R
PINE RIVER     CLOUDY    34  27  75 CALM      29.70F
BRAINERD       CLOUDY    36  29  75 CALM      29.67R
STAPLES        CLOUDY    34  28  80 CALM      29.66F
LONG PRAIRIE   FAIR      34  30  86 CALM      29.66R
LITTLE FALLS   CLOUDY    36  27  69 CALM      29.67R
LITCHFIELD     CLOUDY    39  34  81 SE3       29.64S
BUFFALO        CLOUDY    37  32  81 SE6       29.67S
MAPLE LAKE     CLOUDY    39  35  85 S7        29.67S
HUTCHINSON     CLOUDY    39  34  83 SE7       29.65S
$$
MNZ037-044-045-052-053-171700-
   East Central Minnesota

CITY           SKY/WX    TMP DP  RH WIND       PRES   REMARKS
PRINCETON      CLOUDY    37  34  87 SE6       29.68R
MORA           CLOUDY    34  32  93 S7        29.70F FOG     WCI  28
CAMBRIDGE      CLOUDY    37  37 100 SE3       29.68F FOG
RUSH CITY      CLOUDY    33  32  95 S7        29.70S FOG     WCI  27
MOOSE LAKE     CLOUDY    34  32  93 S3        29.68F FOG
HINCKLEY       CLOUDY    34  34 100 S3        29.70F FOG
CLOQUET        CLOUDY    32  30  93 CALM      29.70S FOG
MCGREGOR       CLOUDY    34  32  93 S6        29.68F WCI  29
$$
MNZ071>073-080-081-089-090-097-098-171700-
   Southwest Minnesota

CITY           SKY/WX    TMP DP  RH WIND       PRES   REMARKS
MONTEVIDEO     CLOUDY    37  34  87 CALM      29.61R
GRANITE FALLS  CLOUDY    40  34  79 SE9       29.61F
CANBY          MOSUNNY   38  32  80 N3        29.61R
MARSHALL       CLOUDY    40  34  79 VRB3      29.61S
REDWOOD FALLS  CLOUDY    40  32  73 SE6       29.62R
OLIVIA         CLOUDY    39  32  75 SE5       29.62R
PIPESTONE      CLOUDY    45  37  76 SW7       29.58S
WINDOM           N/A     43  28  56 S8        29.60S
WORTHINGTON    CLOUDY    44  38  79 SE8       29.59S
JACKSON        CLOUDY    41  34  75 S12       29.61F
SLAYTON        CLOUDY    45  40  83 S7        29.60R
$$
MNZ065>067-074>077-082>085-091>093-171700-
   South Central Minnesota

CITY           SKY/WX    TMP DP  RH WIND       PRES   REMARKS
MANKATO        CLOUDY    38  34  85 S13       29.65F
NEW ULM        CLOUDY    39  34  81 S7G17     29.63S
ST JAMES       PTSUNNY   41  36  81 S14       29.63F
FAIRMONT       CLOUDY    40  35  83 S21       29.62F
GLENCOE        CLOUDY    39  35  84 SE6       29.64F
FARIBAULT      CLOUDY    36  36 100 S9G17     29.67F FOG
OWATONNA       DRIZZLE   36  34  93 SE18G31   29.66F
WASECA         CLOUDY    36  34  93 SE13G18   29.67F FOG
ALBERT LEA     CLOUDY    34  34 100 S16G23    29.67F FOG     WCI  23
$$
MNZ078>079-086>088-094>096-171700-
   Southeast Minnesota

CITY           SKY/WX    TMP DP  RH WIND       PRES   REMARKS
ROCHESTER      CLOUDY    34  32  92 S24G32    29.71F FOG     WCI  21
RED WING       CLOUDY    37  30  75 S10G20    29.70F HAZE
STANTON        LGT RAIN  37  34  90 S13       29.67F
DODGE CENTER   DRIZZLE   34  34 100 S22G28    29.68F WCI  22
WINONA         CLOUDY    36  32  87 S9        29.79S FOG
AUSTIN         DRZL/FOG  34  32  93 S9        29.71F VSB 1   WCI  26
PRESTON        CLOUDY    33  32  95 S15       29.75F FOG     WCI  23
$$
ABBREVIATIONS USED IN REMARKS
   TC - TEMPERATURES IN CELSIUS
  WCI - WIND CHILL INDEX
   HX - HEAT INDEX
  VSB - VISIBILITY
$$




USA.gov is the U.S. government's official web portal to all federal, state and local government web resources and services.